Regional Weather Roundup
Issued by NWS

Home | Current Version | Previous Version | Graphics & Text | Print | Product List | Glossary On
Versions: 1 2 3 4 5 6 7 8 9 10 11 12 13 14 15 16 17 18 19 20 21 22 23 24 25 26 27 28 29 30 31 32 33 34 35 36 37 38 39 40 41 42 43 44 45 46 47 48 49 50
000
ASUS43 KLOT 031500
RWRIL

ILLINOIS REGIONAL WEATHER ROUNDUP
NATIONAL WEATHER SERVICE CHICAGO/ROMEOVILLE IL
1000 AM CDT MON AUG 03 2015

NOTE: "FAIR" INDICATES FEW OR NO CLOUDS BELOW 12,000 FEET WITH NO
SIGNIFICANT WEATHER AND/OR OBSTRUCTIONS TO VISIBILITY.

* THESE STATIONS ARE NOT UNDER NWS QUALITY CONTROL. THEY ALSO MAY NOT
  REPORT WEATHER SUCH AS PRECIPITATION OR FOG.

ILZ001-002-007-009-015-016-024-031600-
NORTHWEST ILLINOIS

CITY           SKY/WX    TMP DP  RH WIND       PRES   REMARKS
MOLINE         SUNNY     76  53  44 N9        29.90R
STERLING*      SUNNY     77  55  47 NE8       29.87S
$$

ILZ003-004-008-010-011-017-018-031600-
NORTH CENTRAL ILLINOIS

CITY           SKY/WX    TMP DP  RH WIND       PRES   REMARKS
ROCKFORD       MOSUNNY   76  51  41 NW10      29.90R
$$

ILZ005-006-012>014-019>023-031600-
NORTHEAST ILLINOIS

CITY           SKY/WX    TMP DP  RH WIND       PRES   REMARKS
CHICAGO-OHARE  MOSUNNY   75  57  53 N13       29.85R
CHICAGO-MIDWAY MOSUNNY   79  59  50 N9        29.85R HX  80
AURORA         SUNNY     75  61  61 N13       29.87R
WAUKEGAN       SUNNY     73  56  54 NW8       29.85R
DUPAGE AIRPORT SUNNY     75  57  53 NW9       29.86R
WHEELING       NOT AVBL
NORTHERLY ISL    N/A     76  60  57 NE8         N/A
$$

LMZ740>746-031600-
SOUTHERN LAKE MICHIGAN

STATION/POSITION SKY/WX   TEMP    WIND        PRES    VSBY  WAVE
                          AIR SEA DIR/SP/G                  HT/PER
                          (F)     (DEG/KT/KT) (MB)    (MI)  (FT/S)
HARRISON CRIB              71     330/ 13/ 15   N/A
BURNHAM HARBOR             74     330/  7/ 10   N/A
CALUMET HARBOR             74     350/  7/ 10   N/A
BURNS HARBOR               72     340/  9/ 10 1010.8R
MICHIGAN CITY              72     280/  7/  9   N/A
MICHIGAN CITY 6N           72 73  330/  8/ 10   N/A           1/ 5
ST. JOSEPH                 71 73  330/ 10/ 12   N/A           2/ 4
$$

ILZ025>027-034>036-040-047-049-050-058-095>099-031600-
WEST-CENTRAL ILLINOIS

CITY           SKY/WX    TMP DP  RH WIND       PRES   REMARKS
QUINCY         PTSUNNY   76  63  64 W6        29.93R
MACOMB*        SUNNY     75  63  66 N7        29.94R
$$

ILZ028>032-037-038-041>044-048-051>054-059>061-031600-
CENTRAL ILLINOIS

CITY           SKY/WX    TMP DP  RH WIND       PRES   REMARKS
DECATUR        SUNNY     80  69  69 W9        29.87R HX  83
PEORIA         SUNNY     79  64  60 VRB6      29.88R HX  81
SPRINGFIELD    SUNNY     78  68  71 W6        29.89R HX  80
TAYLORVILLE    NOT AVBL
$$

ILZ033-039-045-046-055>057-062-063-031600-
EAST-CENTRAL ILLINOIS

CITY           SKY/WX    TMP DP  RH WIND       PRES   REMARKS
CHAMPAIGN      SUNNY     80  70  71 W7        29.86R HX  83
MATTOON        SUNNY     81  67  62 W8        29.86R HX  83
$$

ILZ079-100>102-031600-
SOUTHWEST ILLINOIS

CITY           SKY/WX    TMP DP  RH WIND       PRES   REMARKS
CAHOKIA*       SUNNY     86  63  45 SW6       29.89F HX  87
$$

ILZ064>066-069>071-074>076-080>082-084>086-088>090-092>094-031600-
SOUTH-CENTRAL ILLINOIS

CITY           SKY/WX    TMP DP  RH WIND       PRES   REMARKS
CARBONDALE     SUNNY     84  69  60 NW3       29.91S HX  88
MARION         MOSUNNY   86  70  58 W7        29.92S HX  90
MT. VERNON     SUNNY     84  64  51 W7        29.90S HX  86
SALEM*         SUNNY     85  65  50 W9        29.89S HX  87
$$

ILZ067-068-072-073-078-083-087-091-031600-
SOUTHEAST ILLINOIS

CITY           SKY/WX    TMP DP  RH WIND       PRES   REMARKS
LAWRENCEVILLE  SUNNY     84  70  62 W9        29.86S HX  88
FLORA*         SUNNY     83  64  52 W6        29.88S HX  85
HARRISBURG*    SUNNY     85  69  58 W7        29.91S HAZE    HX  88
ROBINSON*      SUNNY     82  70  66 W7        29.87S HX  85
CARMI*         SUNNY     83  66  56 W7        29.88F HX  85
$$

ABBREVIATIONS USED IN REMARKS
   TC - TEMPERATURE IN CELSIUS
  WCI - WIND CHILL INDEX
   HX - HEAT INDEX
  VSB - VISIBILITY
$$



USA.gov is the U.S. government's official web portal to all federal, state and local government web resources and services.